Weather in Voznesenivka

Ukraine / Luhansk Region     48°04′30″N   39°48′01″E
temp.,
°C
wind,
m/s
gust,
m/s
humid.,
%
clouds,
%
prec.,
mm/h
press.,
hPa
HPBL,
m
13 may, thu
thu1300:00+10ese4118678 0.0 1014197
03:00+9ese4108995 0.0 1014170
06:00+10se4108328 0.0 1015226
09:00+16sse47615 0.0 1015497
12:00+20sse56585 0.0 10141019
15:00+21sse4454100 0.0 10141181
18:00+20se366898 0.0 1014447
21:00+16ese348341 0.0 101542
14 may, fri
fri1400:00+14ese37874 0.0 101492
03:00+14e37890 0.0 1013108
06:00+14ese512825 0.0 1013249
09:00+20se7126074 0.0 1013472
12:00+24se7953100 0.0 1012672
15:00+26se67505 0.0 1012819
18:00+24se48665 0.0 1011510
21:00+18sse33865 0.0 101128
15 may, sat
sat1500:00+17sse238611 0.0 101120
03:00+17ese2287100 0.0 101112
06:00+17w129099 0.2 101266
09:00+23ne0171100 0.2 1012641
12:00+26wsw1252100 0.0 10131483
15:00+27wsw22445 0.0 10121759
18:00+25wsw345529 0.0 1012144
21:00+20nw2261100 0.1 101211
16 may, sun
sun1600:00+18n236994 0.0 101220
03:00+16nne479296 0.0 1012104
06:00+17nne488811 0.0 1011188
09:00+22ene565815 0.0 1011458
12:00+24ese684699 0.0 1010757
15:00+26ese8104596 0.0 10091245
18:00+24e51156100 0.0 1007352
21:00+20e6166152 0.0 1007305
17 may, mon
mon1700:00+20ese718456 0.0 1006513
03:00+16ese515529 0.0 1007329
06:00+15ese71659100 0.0 1006360
09:00+20se8155599 0.0 1006764
12:00+22sse6854100 0.4 1007999
15:00+24se335187 0.6 10071049
18:00+22wsw577097 0.0 1008395
21:00+17sw3791100 1.8 1009197